Location: Lynch Observatory
(39.9540°N, 75.1861°W)
Time: 02:46:53
(UTC-04:00)

NANOSAT C BR1 - Pass Details

Date: 23 April 2024
Orbit: 556 x 561 km, 98.1° (Epoch: 19 May)

Event Time Altitude Azimuth Distance (km) Brightness Sun altitude
Rises 04:39:02 0° 16° (NNE) 2,769 ? -16.7°
Reaches altitude 10° 04:41:12 10° 19° (NNE) 1,869 ? -16.3°
Maximum altitude 04:45:13 64° 101° (E) 631 ? -15.7°
Enters shadow 04:49:09 10° 183° (S) 1,829 ? -15.0°
